Regional Weather Roundup
Issued by NWS

Home | Current Version | Previous Version | Text Only | Print | Product List | Glossary On
Versions: 1 2 3 4 5 6 7 8 9 10 11 12 13 14 15 16 17 18 19 20 21 22 23 24 25 26 27 28 29 30 31 32 33 34 35 36 37 38 39 40 41 42 43 44 45 46 47 48 49 50
000
ASUS43 KTOP 182259
RWRKS

WEATHER ROUNDUP FOR KANSAS
NATIONAL WEATHER SERVICE GOODLAND KS
500 PM CST SAT NOV 18 2017

NOTE:  "FAIR" INDICATES FEW OR NO CLOUDS BELOW 12,000 FEET WITH NO
SIGNIFICANT WEATHER AND/OR OBSTRUCTIONS TO VISIBILITY.

KSZ001>006-013>018-027>032-041>047-190000-
NORTHWEST KANSAS

CITY           SKY/WX    TMP DP  RH WIND       PRES   REMARKS
GOODLAND       CLEAR     44  13  28 NW14G25   30.22R
HAYS           CLEAR     49  21  33 N16       30.19R
HILL CITY      CLEAR     49  21  33 NW10G23   30.20R
RUSSELL        LGT RAIN  49  24  37 NW15      30.16R
$$

KSZ061>065-074>080-084>089-190000-
SOUTHWEST KANSAS

CITY           SKY/WX    TMP DP  RH WIND       PRES   REMARKS
DODGE CITY     CLEAR     49  17  28 N14G23    30.22R
GARDEN CITY    CLEAR     47  14  26 N13       30.24R
GREAT BEND     CLEAR     49  22  34 NW17      30.19R
LIBERAL        CLEAR     49  14  24 N15       30.26R
$$

KSZ066>073-081>083-090>101-190000-
SOUTHEAST KANSAS

CITY           SKY/WX    TMP DP  RH WIND       PRES   REMARKS
CHANUTE        CLEAR     52  32  46 N13G22    30.09R
COFFEYVILLE    PTCLDY    54  35  48 NW13      30.10R
HUTCHINSON     CLEAR     52  24  33 N16       30.16R
MEDICINE LODGE   N/A     53  23  31 N15G23    30.19R
NEWTON         CLEAR     49  25  39 N15       30.15R
PARSONS        CLEAR     52  34  50 N13       30.11R
WICHITA INTL   PTCLDY    53  24  32 N18G28    30.16R
WICHITA JABRA  CLEAR     51  24  34 N18G26    30.15R
WICHITA MCCONL CLEAR     53  23  31 N16       30.15R
WINFIELD       CLEAR     53  27  36 N16       30.16R
$$

KSZ007>012-019>026-033>040-048>060-102>105-190000-
NORTHEAST KANSAS

CITY           SKY/WX    TMP DP  RH WIND       PRES   REMARKS
CONCORDIA      CLEAR     48  25  40 N15G22    30.14R
EMPORIA        PTCLDY    50  26  39 NW17G29   30.11R
LAWRENCE       PTCLDY    50  32  50 NW13      30.07R
MANHATTAN      CLEAR     51  27  39 N9        30.12R
OLATHE IND     CLEAR     47  31  53 NW14      30.06R
OLATHE EXE     CLEAR     48  30  49 NW16G25   30.04R
SALINA         CLEAR     53  24  32 NW21      30.15R
TOPEKA BILLARD CLEAR     51  30  44 NW14      30.08R
TOPEKA FORBES  CLEAR     51  29  42 NW21G26   30.08R
$$




USA.gov is the U.S. government's official web portal to all federal, state and local government web resources and services.